Morville, Louisiana
Current Conditions -  °F | °C
As of 4:35 PM on Monday 20 Oct 2014 (Local Time) from KHEZ Reporting Station
Clear Clear  
Wind Chill: 72°   Ceiling: Unl
Heat Index: 72°   Visibility: 10mi
Dew Point: 52°   Wind: 5mph
Humidity: 50%   Direction: 50°NE
Pressure: 30.03"   Gusts: NA
Location:  31.5712°N, 91.5148°W
Report Text: KHEZ 202135Z AUTO 05004KT 10SM CLR 22/11 A3003 RMK AO1
Loading
Personal Weather Stations






























Interactive Weather Map
Tropical Storm Tracking
New forecast layout! Learn more

10-Day Weather Forecast

Advertisements
Track Severe Weather on mobile